TimeMDT,TemperatureF,Dew PointF,Humidity,Sea Level PressureIn,VisibilityMPH,Wind Direction,Wind SpeedMPH,Gust SpeedMPH,PrecipitationIn,Events,Conditions,WindDirDegrees,DateUTC
12:05 AM,64.4,60.8,88,30.25,10.0,NE,16.1,23.0,N/A,Thunderstorm,Thunderstorm,50,2013-07-31 06:05:00
12:12 AM,64.4,60.8,88,30.25,10.0,NE,12.7,-,N/A,Thunderstorm,Thunderstorm,40,2013-07-31 06:12:00
1:53 AM,64.0,60.1,87,30.10,10.0,SE,11.5,-,N/A,,Clear,140,2013-07-31 07:53:00
2:53 AM,66.9,62.1,84,30.10,10.0,SSE,9.2,-,N/A,,Partly Cloudy,160,2013-07-31 08:53:00
3:53 AM,66.0,63.0,90,30.12,10.0,SE,10.4,-,N/A,,Mostly Cloudy,140,2013-07-31 09:53:00
4:53 AM,64.0,63.0,96,30.11,6.0,SSE,5.8,-,N/A,,Partly Cloudy,150,2013-07-31 10:53:00
5:53 AM,63.0,60.1,90,30.13,10.0,Calm,Calm,-,N/A,,Clear,0,2013-07-31 11:53:00
6:53 AM,64.9,60.1,84,30.13,10.0,West,3.5,-,N/A,,Clear,270,2013-07-31 12:53:00
7:53 AM,70.0,60.1,71,30.14,10.0,West,8.1,-,N/A,,Clear,260,2013-07-31 13:53:00
8:53 AM,73.9,64.0,71,30.16,10.0,West,8.1,-,N/A,,Partly Cloudy,280,2013-07-31 14:53:00
9:14 AM,73.4,64.4,73,30.24,10.0,West,9.2,-,N/A,,Mostly Cloudy,270,2013-07-31 15:14:00
9:53 AM,75.0,64.0,69,30.16,10.0,WNW,8.1,-,N/A,,Mostly Cloudy,290,2013-07-31 15:53:00
10:31 AM,75.2,62.6,65,30.24,10.0,Calm,Calm,-,N/A,,Scattered Clouds,0,2013-07-31 16:31:00
10:53 AM,78.1,64.0,62,30.15,10.0,Variable,6.9,-,N/A,,Clear,0,2013-07-31 16:53:00
11:53 AM,80.1,64.0,58,30.14,10.0,Variable,5.8,-,N/A,,Clear,0,2013-07-31 17:53:00
12:53 PM,82.9,64.9,54,30.14,10.0,North,8.1,-,N/A,,Clear,10,2013-07-31 18:53:00
1:53 PM,84.9,64.9,51,30.12,10.0,ENE,9.2,-,N/A,,Clear,60,2013-07-31 19:53:00
2:53 PM,86.0,63.0,46,30.09,10.0,ENE,8.1,-,N/A,,Clear,70,2013-07-31 20:53:00
3:53 PM,88.0,59.0,37,30.06,10.0,Variable,5.8,-,N/A,,Clear,0,2013-07-31 21:53:00
4:53 PM,88.0,59.0,37,30.04,10.0,NE,6.9,-,N/A,,Clear,50,2013-07-31 22:53:00
5:53 PM,84.9,64.0,49,30.05,10.0,ESE,11.5,-,N/A,,Clear,110,2013-07-31 23:53:00
6:53 PM,81.0,64.0,56,30.07,10.0,ESE,8.1,-,N/A,,Clear,110,2013-08-01 00:53:00
7:53 PM,77.0,63.0,62,30.08,10.0,ESE,9.2,-,N/A,,Partly Cloudy,110,2013-08-01 01:53:00
8:53 PM,73.0,63.0,71,30.10,10.0,ESE,10.4,-,N/A,,Clear,120,2013-08-01 02:53:00
9:53 PM,71.1,63.0,75,30.12,10.0,ESE,5.8,-,N/A,,Clear,120,2013-08-01 03:53:00
10:53 PM,69.1,63.0,81,30.12,10.0,ESE,4.6,-,N/A,,Clear,120,2013-08-01 04:53:00
11:53 PM,69.1,63.0,81,30.11,10.0,Calm,Calm,-,N/A,,Clear,0,2013-08-01 05:53:00